User: anonymous   Login
Location: New Plymouth
(39.0670°S, 174.0830°E)
Time: 12:21:08
(UTC+12:00)
Language:

VELOX 1 - Orbit

View from above orbital plane
View from above orbital plane
View from above satellite
View from above satellite

Ground track
Ground track

The orbit data is extracted from the following two-line orbital elements,

1 40057U 14034E   19232.71901842  .00000132  00000-0  26138-4 0  9997
2 40057  98.2434 357.1923 0011770  37.4582 322.7449 14.77691489277073
Epoch (UTC): 20 August 2019 17:15:23
Eccentricity: 0.0011770
inclination: 98.2434°
perigee height: 628 km
apogee height: 645 km
right ascension of ascending node: 357.1923°
argument of perigee: 37.4582°
revolutions per day: 14.77691489
mean anomaly at epoch: 322.7449°
orbit number at epoch: 27707

The dashed part of the orbit path shows where the satellite is in the earth's shadow,  

DLR